Regional Weather Roundup
Issued by NWS Sterling, VA

Home | Current Version | Previous Version | Graphics & Text | Print | Product List | Glossary On
Versions: 1 2 3 4 5 6 7 8 9 10 11 12 13 14 15 16 17 18 19 20 21 22 23 24 25 26 27
000
ASUS41 KLWX 252211
RWRLWX

REGIONAL WEATHER ROUNDUP
NATIONAL WEATHER SERVICE BALTIMORE MD/WASHINGTON DC
600 PM EDT THU MAY 25 2017

Note: "FAIR" indicates few or no clouds below 12,000 feet
with no significant weather and/or obstructions to visibility.
 TC=TEMPERATURE CELSIUS

 * =Non NWS site. Station does not report precipitation (e.g. rain,
    snow, etc.), thunder, or fog.

DCZ001-MDZ009-015-VAZ040>042-051-053>054-252300-
WASHINGTON METRO

CITY           SKY/WX    TMP DP  RH WIND       PRES   REMARKS
WASHINGTON NAT TSTM      63  60  90 S12G35    29.48R FOG
DULLES         TSTM      63  56  78 NW10G22   29.48R
ANDREWS AFB    TSTM      59  55  88 SW13      29.48R VSB 1/4
FT BELVOIR     TSTM      60  57  89 CALM      29.46F
QUANTICO       CLOUDY    63  63 100 NW3       29.46F
COLLEGE PARK*  CLOUDY    70  60  70 SW3       29.45R
LEESBURG*      TSTM      61  59  94 S14       29.51R
MANASSAS*      LGT RAIN  61  58  90 NW3       29.47R
GAITHERSBURG*  TSTM      64  54  69 NW18G29   29.47R

$$

MDZ006>007-011-014-252300-
BALTIMORE METRO

CITY           SKY/WX    TMP DP  RH WIND       PRES   REMARKS
BWI AIRPORT    CLOUDY    70  62  76 E8        29.44R
MD SCIENCE CTR   N/A     72  62  71 MISG      29.43S
MARTIN STATE   PTSUNNY   72  66  83 CALM      29.47R
ANNAPOLIS      MOSUNNY   72  62  71 NW3       29.44R
FORT MEADE*    CLOUDY    68  63  83 CALM      29.47R

$$

MDZ012-015-019>023-252300-
MARYLAND EASTERN SHORE

CITY           SKY/WX    TMP DP  RH WIND       PRES   REMARKS
OCEAN CITY     PTSUNNY   66  62  87 S7        29.46F
SALISBURY      CLOUDY    74  62  66 S6        29.44F
BAY BRIDGE AP* CLOUDY    70  63  78 NW3       29.43F
CAMBRIDGE*     MOSUNNY   73  61  64 S8G14     29.44S
EASTON*        PTSUNNY   75  61  60 MISG      29.46F

$$

MDZ017>025-252300-
SOUTHERN MARYLAND

CITY           SKY/WX    TMP DP  RH WIND       PRES   REMARKS
PATUXENT RIVER TSTM      62  58  86 SW14G25   29.49R FOG
ST INIGOES     LGT RAIN  62  59  90 W12       29.47R FOG
LEONARDTOWN*   CLOUDY    59  54  82 S6        29.43F

$$

MDZ003>005-252300-
NORTH CENTRAL MARYLAND

CITY           SKY/WX    TMP DP  RH WIND       PRES   REMARKS
FREDERICK*     CLOUDY    68  63  83 SW13G18   29.51R VSB 1
HAGERSTOWN APT LGT RAIN  65  59  81 E5        29.49R
WESTMINSTER*   MOSUNNY   68  61  77 NW5       29.48S

$$

MDZ501>502-252300-
WESTERN MARYLAND

CITY           SKY/WX    TMP DP  RH WIND       PRES   REMARKS
OAKLAND*       SUNNY     57  48  72 SW12G17   29.53R
CUMBERLAND*    PTSUNNY   68  59  73 S7        29.51R

$$

VAZ025>031-252300-
SHENANDOAH VALLEY

CITY           SKY/WX    TMP DP  RH WIND       PRES   REMARKS
WINCHESTER*    HVY RAIN  59  59 100 CALM        N/A
FRONT ROYAL*   CLOUDY    59  59 100 E3        29.49R
LURAY*         RAIN      55  55 100 S7          N/A
NEW MARKET*    CLOUDY    58  55  89 NE6       29.48R
STAUNTON*      MOSUNNY   68  51  54 SW17      29.51R
WAYNESBORO*    MOSUNNY   65  53  64 SW7G28    29.51R

$$

WVZ021-048>050-054>055-252300-
EASTERN WEST VIRGINIA PANHANDLE

CITY           SKY/WX    TMP DP  RH WIND       PRES   REMARKS
MARTINSBURG    LGT RAIN  61  60  97 CALM      29.49R FOG
PETERSBURG*    CLOUDY    65  61  84 S5        29.50R

$$

VAZ036>039-050-252300-
CENTRAL FOOTHILLS

CITY           SKY/WX    TMP DP  RH WIND       PRES   REMARKS
CHARLOTTESVILL MOSUNNY   71  61  70 SW5       29.46R
CULPEPER*      CLOUDY    62  58  88 CALM      29.47S
ORANGE*        CLOUDY    63  61  94 CALM      29.46S
GORDONSVILLE*  CLOUDY    66  62  87 SW3       29.45S
WARRENTON*     CLOUDY    61  56  83 CALM      29.46R

$$

VAZ055>057-252300-
NORTH AND CENTRAL PIEDMONT

CITY           SKY/WX    TMP DP  RH WIND       PRES   REMARKS
FREDERICKSBRG* CLOUDY    66  60  81 CALM      29.46F
STAFFORD*      PTSUNNY   63  59  87 NE6       29.49F

$$

NCZ024-NYZ072-PAZ021-071-VAZ022-071-252300-
OTHER REGIONAL OBSERVATIONS

CITY           SKY/WX    TMP DP  RH WIND       PRES   REMARKS
NEW YORK CITY  CLOUDY    57  56  96 E10       29.57R FOG
PHILADELPHIA   TSTM      63  61  93 N10       29.48F FOG
PITTSBURGH     CLOUDY    63  56  78 W12       29.48R
ROANOKE        LGT RAIN  62  53  72 SW13G20   29.59R
RICHMOND       CLOUDY    70  58  65 SW10      29.49R
RALEIGH        LGT RAIN  67  57  70 W10       29.59R

$$

ANZ530>537-252300-
MARINE OBSERVATIONS

STATION/POSITION TIME  TEMP    WIND        PRES
                       AIR SEA DIR/SP/G
                 (UTC) (F)     (DEG/KT/KT) (MB)
THOMAS PT LIGHT  2200   69 64  320/  9/  9   N/A
BALT KEY BRIDGE  2136   69     100/  6/  6  997.2R
COVE POINT       2148   60     270/ 15/ 22  998.2R
LEWISETTA        2148          270/ 10/ 12  998.1R
SOLOMONS ISLAND  2148   61 67  220/ 16/ 20   N/A
PINEY POINT      2148          300/  1/  2   N/A

$$





USA.gov is the U.S. government's official web portal to all federal, state and local government web resources and services.